Dewpoint
68 68 69 70 72 73 72 73 74 73 76 77 79 79 79 78 78 77 78 77 75 74 74 73 73 75 72 74 74 74 72 72 69 70 70 74 75 73 72 73 73 73 74
69 68 68 70 71 68 71 71 72 73 73 76 79 80 79 79 79 78 76 74 75 74 73 73 71 71 72 71 71 71 73 73 72 71 72 74 76 75 75 75 72 69 76
67 67 69 69 69 70 68 68 70 73 74 72 75 80 79 79 79 79 79 77 76 75 74 73 72 72 71 70 71 70 70 73 76 71 70 69 71 77 75 75 75 76 77
64 64 65 65 63 65 67 69 68 71 72 73 75 80 79 79 79 79 78 78 77 75 75 74 74 74 75 75 73 75 74 72 71 71 71 70 75 75 73 73 74 72 73
69 69 68 67 66 67 69 71 72 73 73 75 79 78 79 78 79 78 78 77 77 75 76 76 74 75 72 71 71 73 74 68 64 66 73 75 74 74 73 73 71 72 72
73 69 69 70 71 77 77 79 79 78 77 78 77 77 76 77 71 70 71 77 73 73 73 73 75 74 72 69 69 68 69 69 70 67 64 73 75 76 72 68 73 72 68
72 71 75 79 79 77 75 75 75 75 75 75 75 76 77 77 69 68 68 69 70 71 73 72 71 65 70 73 68 68 67 67 66 69 71 74 75 75 74 71 71 69 65
74 76 76 77 76 75 73 72 72 71 70 70 70 72 73 73 69 67 68 70 71 71 71 71 71 72 71 70 67 67 68 70 70 69 69 71 74 75 76 74 74 74 75
75 76 75 74 73 70 68 67 67 68 67 67 66 69 69 68 68 65 66 66 64 69 71 72 72 72 67 65 68 67 66 65 64 65 68 68 68 68 69 70 68 71 66
74 74 73 71 68 64 65 67 68 67 66 61 63 65 63 66 63 61 64 60 57 53 63 66 65 70 65 62 68 68 67 65 69 70 71 69 68 70 66 70 66 62 67
73 72 69 67 65 67 68 68 68 68 68 68 67 69 69 67 67 60 61 64 58 54 53 52 53 61 60 58 60 67 65 65 68 69 66 66 66 68 68 69 69 65 62
71 68 68 68 64 63 68 69 70 69 69 69 69 66 57 68 64 61 59 59 61 60 59 55 57 58 58 59 60 61 60 62 66 66 65 62 62 63 65 67 71 70 68
68 67 66 66 66 68 69 69 64 67 61 58 50 50 51 52 56 56 58 59 59 60 60 59 57 55 55 56 57 58 59 60 60 61 65 64 62 61 65 70 71 75 74
68 67 67 68 67 69 63 61 58 55 55 52 51 52 53 55 55 56 56 56 57 55 57 54 54 55 56 57 58 59 59 60 61 60 61 65 65 62 62 62 64 64 66
66 66 67 65 64 63 62 56 55 60 53 54 55 56 56 55 55 52 51 52 52 51 52 52 50 50 52 54 57 58 59 59 60 60 60 61 63 63 63 63 63 63 64
67 60 58 57 55 54 54 54 52 51 51 51 50 54 55 51 49 48 46 45 46 48 51 51 50 51 51 52 54 57 58 57 57 59 60 62 62 62 64 64 63 63 62
64 63 58 55 53 54 55 53 52 52 50 49 48 49 49 50 48 46 44 44 45 47 52 52 53 52 51 52 52 52 53 57 61 58 58 60 60 61 61 62 63 62 62
62 56 57 55 55 55 54 55 54 53 53 52 48 50 47 45 44 44 43 45 52 52 53 54 55 56 57 57 56 53 53 55 57 58 57 57 59 59 59 59 61 62 62
59 56 57 56 55 55 55 55 54 51 49 47 48 47 47 46 45 45 45 52 53 52 52 52 53 53 55 56 57 58 59 57 55 56 56 56 56 56 58 58 57 54 58
56 59 57 56 54 53 52 48 46 47 48 48 48 49 51 50 50 50 51 51 52 52 52 52 53 53 53 53 55 57 58 58 58 56 57 57 57 58 56 56 56 55 56
56 55 55 51 48 46 46 46 48 48 49 49 49 49 46 49 48 49 49 50 51 50 51 51 52 53 53 54 53 54 55 56 57 58 56 58 58 56 57 59 58 57 57
52 50 47 46 45 46 49 49 49 48 48 47 47 48 45 48 49 48 48 48 48 49 49 50 50 51 52 52 53 52 53 53 55 58 60 59 57 59 61 60 58 57 57
47 46 44 44 48 49 48 48 47 47 47 47 47 47 47 46 46 46 46 46 47 47 48 49 50 52 53 54 54 56 55 55 55 57 61 62 62 61 61 64 61 58 57
46 45 49 49 48 47 47 46 47 47 48 47 46 46 46 46 46 46 47 47 48 49 50 50 51 54 54 54 55 56 56 56 58 59 61 63 65 62 64 62 65 65 61
50 49 49 48 47 46 48 48 48 48 47 46 46 46 46 46 46 47 47 47 46 47 49 52 53 52 53 53 54 55 47 39 49 50 58 63 64 63 64 63 65 64 63
49 48 47 47 47 47 47 46 46 46 46 46 46 46 46 46 46 47 47 47 46 46 46 47 47 47 48 50 49 41 34 34 44 37 52 59 63 64 62 63 61 61 61
Lifted_Index
-5 -5 -5 -6 -6 -6 -6 -6 -7 -8 -8 -9 -10 -11 -11 -11 -10 -10 -9 -9 -8 -7 -6 -6 -5 -4 -4 -4 -4 -4 -4 -4 -4 -5 -6 -6 -6 -5 -5 -6 -6 -6 -6
-5 -5 -5 -5 -6 -6 -6 -6 -6 -7 -8 -8 -10 -11 -11 -11 -10 -10 -10 -9 -9 -8 -7 -6 -5 -4 -4 -4 -4 -4 -5 -5 -5 -5 -6 -6 -6 -6 -6 -6 -6 -6 -6
-5 -5 -5 -5 -5 -5 -5 -5 -5 -6 -6 -8 -9 -10 -11 -10 -10 -10 -10 -10 -10 -9 -8 -7 -6 -5 -5 -5 -5 -6 -6 -6 -7 -7 -6 -6 -5 -5 -5 -6 -6 -6 -6
-5 -5 -5 -5 -4 -4 -4 -5 -5 -6 -6 -7 -9 -10 -10 -10 -10 -10 -10 -10 -10 -10 -9 -8 -8 -7 -7 -6 -6 -7 -7 -6 -6 -7 -7 -6 -5 -5 -5 -5 -5 -5 -4
-6 -6 -5 -4 -5 -5 -6 -6 -7 -7 -7 -8 -9 -9 -10 -10 -10 -9 -9 -9 -9 -9 -9 -9 -9 -8 -8 -7 -7 -6 -5 -5 -5 -5 -6 -6 -6 -6 -5 -5 -4 -4 -3
-6 -6 -6 -6 -7 -8 -8 -8 -8 -8 -8 -8 -9 -9 -9 -9 -8 -8 -7 -7 -8 -8 -8 -8 -8 -8 -7 -7 -6 -5 -3 -3 -3 -4 -5 -6 -6 -6 -5 -4 -4 -4 -3
-7 -7 -8 -8 -9 -9 -9 -8 -8 -7 -7 -7 -7 -7 -7 -7 -7 -6 -5 -5 -6 -6 -7 -7 -7 -7 -7 -6 -5 -4 -3 -3 -3 -4 -5 -6 -6 -7 -6 -5 -5 -4 -3
-8 -9 -9 -9 -9 -8 -7 -6 -5 -5 -4 -4 -4 -4 -5 -5 -5 -4 -3 -3 -3 -4 -5 -6 -7 -6 -6 -5 -4 -4 -4 -4 -4 -4 -5 -6 -6 -7 -6 -6 -5 -4 -4
-9 -9 -9 -8 -7 -6 -4 -3 -3 -2 -1 -1 -1 -2 -2 -2 -2 -1 -0 0 -0 -1 -3 -4 -5 -6 -5 -4 -3 -3 -3 -3 -4 -5 -5 -6 -6 -6 -6 -5 -4 -4 -3
-9 -8 -7 -6 -4 -4 -3 -3 -2 -1 -1 -0 -1 -1 -1 -1 -0 1 1 2 2 2 1 -0 -2 -3 -4 -3 -3 -3 -2 -3 -3 -5 -5 -5 -5 -5 -5 -4 -3 -3 -2
-7 -6 -5 -4 -3 -3 -3 -3 -2 -2 -1 -1 -1 -1 -1 -0 -0 1 2 2 3 4 4 3 2 1 -1 -2 -3 -3 -3 -3 -3 -4 -5 -4 -4 -4 -4 -4 -3 -3 -2
-5 -4 -4 -3 -3 -3 -3 -3 -3 -2 -1 -1 -0 0 1 1 1 1 2 3 3 3 4 4 4 4 3 1 -0 -1 -1 -2 -2 -3 -4 -4 -4 -4 -4 -4 -4 -4 -4
-4 -4 -3 -3 -3 -3 -3 -3 -2 -1 0 1 2 3 2 2 2 2 3 3 3 4 4 4 4 4 4 3 3 2 1 0 -1 -2 -3 -4 -4 -4 -4 -4 -5 -5 -5
-4 -4 -4 -4 -3 -3 -2 -1 -1 0 1 2 3 3 3 2 2 2 3 3 4 5 5 6 5 5 4 4 3 3 2 1 -0 -1 -2 -3 -4 -4 -4 -4 -4 -4 -5
-3 -3 -3 -3 -2 -2 -1 -1 -0 0 1 1 1 1 2 2 2 3 4 5 6 7 7 7 7 7 6 4 3 2 1 1 -0 -1 -1 -3 -4 -4 -4 -4 -4 -3 -4
-3 -3 -2 -1 -1 -1 -1 -1 -0 -0 0 0 0 1 1 2 3 4 5 6 6 7 7 7 7 7 6 5 4 3 2 1 0 -0 -1 -2 -3 -4 -4 -4 -4 -3 -3
-2 -2 -1 -1 -1 -1 -1 -1 -0 -0 0 0 1 1 2 3 4 4 5 5 5 5 5 4 5 5 5 4 4 3 2 2 1 0 -0 -1 -2 -3 -3 -4 -4 -3 -3
-1 -1 -1 -1 -1 -1 -0 -0 0 0 1 1 2 2 3 4 4 4 5 5 4 4 3 3 3 3 3 3 3 3 3 2 1 1 1 0 -1 -1 -2 -2 -3 -3 -3
-1 -0 -0 -0 0 1 1 1 2 2 2 3 3 4 4 4 4 4 4 4 4 4 4 4 4 4 4 3 3 3 3 2 2 2 1 1 0 -0 -1 -1 -2 -2 -2
0 1 1 1 2 2 3 3 4 4 4 5 5 5 5 5 4 4 4 4 4 4 5 5 5 5 5 5 5 4 4 3 3 2 2 1 1 0 -0 -1 -1 -1 -1
1 2 2 3 3 4 4 5 5 5 5 6 6 6 5 5 4 4 4 4 5 6 6 6 6 7 7 7 7 6 6 5 4 3 2 2 1 -0 -0 -1 -1 -1 -1
3 3 4 5 5 5 5 6 6 6 6 6 6 5 5 5 4 5 5 6 6 7 7 7 7 8 8 8 8 8 7 6 5 4 3 2 1 -0 -1 -1 -1 -1 -1
5 5 6 6 6 6 6 6 6 6 6 6 5 5 5 5 5 6 6 7 8 8 8 8 8 8 9 9 9 8 8 6 5 4 3 2 0 -1 -1 -2 -2 -1 -1
7 7 6 6 6 6 7 7 7 6 6 6 5 5 6 6 6 6 7 8 8 8 9 9 9 9 9 9 8 8 7 6 5 4 2 1 -0 -1 -2 -2 -2 -2 -2
8 8 7 7 7 7 7 7 7 7 6 6 6 7 7 7 7 7 8 8 8 8 8 8 8 8 8 7 7 6 5 4 3 2 2 1 -1 -1 -2 -2 -2 -3 -3
8 8 7 7 7 8 7 7 7 7 7 7 7 7 7 7 7 8 8 8 8 8 7 7 7 7 7 6 5 4 3 2 2 1 1 0 -1 -1 -2 -2 -2 -3 -3